Time,TemperatureF,DewpointF,PressureIn,WindDirection,WindDirectionDegrees,WindSpeedMPH,WindSpeedGustMPH,Humidity,HourlyPrecipIn,Conditions,Clouds,dailyrainin,SoftwareType,DateUTC
2013-01-21 00:02:00,14.0,-16.0,30.35,WNW,292,0.0,0.0,24,0.00,,,0.00,,2013-01-21 06:02:00,
2013-01-21 00:12:00,14.0,-16.0,30.35,WNW,292,0.0,0.0,24,0.00,,,0.00,,2013-01-21 06:12:00,
2013-01-21 00:23:00,14.0,-12.0,30.35,West,270,0.0,6.0,30,0.00,,,0.00,,2013-01-21 06:23:00,
2013-01-21 00:33:00,14.0,-12.0,30.35,West,264,6.0,7.0,30,0.00,,,0.00,,2013-01-21 06:33:00,
2013-01-21 00:43:00,14.0,-12.0,30.35,West,264,6.0,7.0,30,0.00,,,0.00,,2013-01-21 06:43:00,
2013-01-21 00:53:00,13.0,-11.0,30.34,WNW,292,0.0,0.0,32,0.00,,,0.00,,2013-01-21 06:53:00,
2013-01-21 01:03:00,12.0,-12.0,30.34,WSW,248,0.0,0.0,32,0.00,,,0.00,,2013-01-21 07:03:00,
2013-01-21 01:12:00,12.0,-12.0,30.34,WSW,248,0.0,0.0,32,0.00,,,0.00,,2013-01-21 07:12:00,
2013-01-21 01:22:00,11.0,-11.0,30.33,WSW,248,0.0,0.0,35,0.00,,,0.00,,2013-01-21 07:22:00,
2013-01-21 01:33:00,11.0,-10.0,30.33,WNW,292,1.0,6.0,37,0.00,,,0.00,,2013-01-21 07:33:00,
2013-01-21 01:42:00,11.0,-10.0,30.33,WNW,292,1.0,6.0,37,0.00,,,0.00,,2013-01-21 07:42:00,
2013-01-21 01:53:00,13.0,-7.0,30.33,WSW,248,0.0,0.0,39,0.00,,,0.00,,2013-01-21 07:53:00,
2013-01-21 02:02:00,13.0,-7.0,30.33,WSW,248,0.0,0.0,39,0.00,,,0.00,,2013-01-21 08:02:00,
2013-01-21 02:13:00,13.0,-7.0,30.33,WSW,248,0.0,0.0,39,0.00,,,0.00,,2013-01-21 08:13:00,
2013-01-21 02:22:00,13.0,-8.0,30.32,West,270,0.0,5.0,38,0.00,,,0.00,,2013-01-21 08:22:00,
2013-01-21 02:32:00,12.0,-8.0,30.32,WSW,248,4.0,6.0,39,0.00,,,0.00,,2013-01-21 08:32:00,
2013-01-21 02:43:00,12.0,-8.0,30.32,WSW,248,4.0,6.0,39,0.00,,,0.00,,2013-01-21 08:43:00,
2013-01-21 02:53:00,12.0,-8.0,30.32,WSW,248,0.0,0.0,40,0.00,,,0.00,,2013-01-21 08:53:00,
2013-01-21 03:02:00,12.0,-8.0,30.32,West,270,0.0,0.0,40,0.00,,,0.00,,2013-01-21 09:02:00,
2013-01-21 03:12:00,12.0,-8.0,30.32,West,270,0.0,0.0,40,0.00,,,0.00,,2013-01-21 09:12:00,
2013-01-21 03:23:00,12.0,-7.0,30.31,WSW,248,0.0,0.0,41,0.00,,,0.00,,2013-01-21 09:23:00,
2013-01-21 03:33:00,12.0,-7.0,30.31,SW,225,7.0,7.0,41,0.00,,,0.00,,2013-01-21 09:33:00,
2013-01-21 03:42:00,12.0,-7.0,30.31,SW,225,7.0,7.0,41,0.00,,,0.00,,2013-01-21 09:42:00,
2013-01-21 03:53:00,12.0,-8.0,30.31,WNW,292,2.0,7.0,40,0.00,,,0.00,,2013-01-21 09:53:00,
2013-01-21 04:02:00,12.0,-8.0,30.30,WSW,248,5.0,7.0,40,0.00,,,0.00,,2013-01-21 10:02:00,
2013-01-21 04:12:00,12.0,-8.0,30.30,WSW,248,5.0,7.0,40,0.00,,,0.00,,2013-01-21 10:12:00,
2013-01-21 04:22:00,11.0,-10.0,30.30,WSW,248,7.0,14.0,38,0.00,,,0.00,,2013-01-21 10:22:00,
2013-01-21 04:32:00,11.0,-9.0,30.31,West,270,9.0,10.0,39,0.00,,,0.00,,2013-01-21 10:32:00,
2013-01-21 04:43:00,11.0,-9.0,30.31,West,270,9.0,10.0,39,0.00,,,0.00,,2013-01-21 10:43:00,
2013-01-21 04:53:00,10.0,-9.0,30.30,SSW,205,2.0,8.0,40,0.00,,,0.00,,2013-01-21 10:53:00,
2013-01-21 05:02:00,10.0,-9.0,30.30,WSW,248,7.0,9.0,40,0.00,,,0.00,,2013-01-21 11:02:00,
2013-01-21 05:13:00,10.0,-9.0,30.30,WSW,248,7.0,9.0,40,0.00,,,0.00,,2013-01-21 11:13:00,
2013-01-21 05:23:00,10.0,-8.0,30.30,WSW,248,6.0,8.0,43,0.00,,,0.00,,2013-01-21 11:23:00,
2013-01-21 05:33:00,10.0,-8.0,30.29,West,266,5.0,8.0,43,0.00,,,0.00,,2013-01-21 11:33:00,
2013-01-21 05:42:00,10.0,-8.0,30.29,West,266,5.0,8.0,43,0.00,,,0.00,,2013-01-21 11:42:00,
2013-01-21 05:53:00,10.0,-8.0,30.30,WSW,252,1.0,7.0,43,0.00,,,0.00,,2013-01-21 11:53:00,
2013-01-21 06:02:00,10.0,-8.0,30.30,WSW,248,0.0,8.0,44,0.00,,,0.00,,2013-01-21 12:02:00,
2013-01-21 06:12:00,10.0,-8.0,30.30,WSW,248,0.0,8.0,44,0.00,,,0.00,,2013-01-21 12:12:00,
2013-01-21 06:22:00,10.0,-7.0,30.30,WSW,248,2.0,9.0,45,0.00,,,0.00,,2013-01-21 12:22:00,
2013-01-21 06:32:00,10.0,-7.0,30.30,SW,225,7.0,9.0,46,0.00,,,0.00,,2013-01-21 12:32:00,
2013-01-21 06:42:00,10.0,-7.0,30.30,SW,225,7.0,9.0,46,0.00,,,0.00,,2013-01-21 12:42:00,
2013-01-21 06:53:00,10.0,-6.0,30.29,SW,225,2.0,7.0,48,0.00,,,0.00,,2013-01-21 12:53:00,
2013-01-21 07:02:00,10.0,-5.0,30.30,WSW,248,3.0,5.0,50,0.00,,,0.00,,2013-01-21 13:02:00,
2013-01-21 07:12:00,10.0,-5.0,30.30,WSW,248,3.0,5.0,50,0.00,,,0.00,,2013-01-21 13:12:00,
2013-01-21 07:23:00,10.0,-3.0,30.29,WNW,292,0.0,5.0,54,0.00,,,0.00,,2013-01-21 13:23:00,
2013-01-21 07:33:00,10.0,-3.0,30.29,West,273,3.0,3.0,55,0.00,,,0.00,,2013-01-21 13:33:00,
2013-01-21 07:43:00,10.0,-3.0,30.29,West,273,3.0,3.0,55,0.00,,,0.00,,2013-01-21 13:43:00,
2013-01-21 07:53:00,10.0,-2.0,30.30,WNW,292,0.0,0.0,57,0.00,,,0.00,,2013-01-21 13:53:00,
2013-01-21 08:03:00,9.0,-3.0,30.30,West,270,0.0,0.0,56,0.00,,,0.00,,2013-01-21 14:03:00,
2013-01-21 08:12:00,9.0,-3.0,30.30,West,270,0.0,0.0,56,0.00,,,0.00,,2013-01-21 14:12:00,
2013-01-21 08:23:00,9.0,-3.0,30.30,WSW,248,0.0,0.0,56,0.00,,,0.00,,2013-01-21 14:23:00,
2013-01-21 08:32:00,10.0,-3.0,30.30,WSW,249,0.0,0.0,56,0.00,,,0.00,,2013-01-21 14:32:00,
2013-01-21 08:43:00,10.0,-3.0,30.30,WSW,249,0.0,0.0,56,0.00,,,0.00,,2013-01-21 14:43:00,
2013-01-21 08:53:00,11.0,-1.0,30.30,WNW,292,0.0,0.0,57,0.00,,,0.00,,2013-01-21 14:53:00,
2013-01-21 09:03:00,11.0,-2.0,30.31,WSW,248,0.0,0.0,55,0.00,,,0.00,,2013-01-21 15:03:00,
2013-01-21 09:13:00,11.0,-2.0,30.31,WSW,248,0.0,0.0,55,0.00,,,0.00,,2013-01-21 15:13:00,
2013-01-21 09:23:00,11.0,-2.0,30.31,WSW,249,0.0,0.0,55,0.00,,,0.00,,2013-01-21 15:23:00,
2013-01-21 09:33:00,10.0,-4.0,30.31,WSW,246,0.0,0.0,53,0.00,,,0.00,,2013-01-21 15:33:00,
2013-01-21 09:43:00,10.0,-4.0,30.31,WSW,246,0.0,0.0,53,0.00,,,0.00,,2013-01-21 15:43:00,
2013-01-21 09:53:00,11.0,-4.0,30.32,WSW,248,6.0,9.0,50,0.00,,,0.00,,2013-01-21 15:53:00,
2013-01-21 10:03:00,10.0,-4.0,30.32,WSW,248,7.0,17.0,51,0.00,,,0.00,,2013-01-21 16:03:00,
2013-01-21 10:12:00,10.0,-4.0,30.32,WSW,248,7.0,17.0,51,0.00,,,0.00,,2013-01-21 16:12:00,
2013-01-21 10:23:00,11.0,-4.0,30.34,SW,225,9.0,10.0,50,0.00,,,0.00,,2013-01-21 16:23:00,
2013-01-21 10:33:00,12.0,-6.0,30.34,West,270,6.0,8.0,44,0.00,,,0.00,,2013-01-21 16:33:00,
2013-01-21 10:43:00,12.0,-6.0,30.34,West,270,6.0,8.0,44,0.00,,,0.00,,2013-01-21 16:43:00,
2013-01-21 10:53:00,12.0,-9.0,30.35,West,270,6.0,9.0,38,0.00,,,0.00,,2013-01-21 16:53:00,
2013-01-21 11:02:00,11.0,-11.0,30.35,West,270,7.0,9.0,35,0.00,,,0.00,,2013-01-21 17:02:00,
2013-01-21 11:12:00,11.0,-11.0,30.35,West,270,7.0,9.0,35,0.00,,,0.00,,2013-01-21 17:12:00,
2013-01-21 11:22:00,11.0,-16.0,30.34,WNW,292,8.0,12.0,27,0.00,,,0.00,,2013-01-21 17:22:00,
2013-01-21 11:33:00,11.0,-23.0,30.34,South,180,3.0,7.0,19,0.00,,,0.00,,2013-01-21 17:33:00,
2013-01-21 11:43:00,11.0,-23.0,30.34,South,180,3.0,7.0,19,0.00,,,0.00,,2013-01-21 17:43:00,
2013-01-21 11:53:00,12.0,-22.0,30.34,SW,227,12.0,13.0,19,0.00,,,0.00,,2013-01-21 17:53:00,
2013-01-21 12:03:00,13.0,-21.0,30.35,West,270,11.0,15.0,19,0.00,,,0.00,,2013-01-21 18:03:00,
2013-01-21 12:12:00,13.0,-21.0,30.35,West,270,11.0,15.0,19,0.00,,,0.00,,2013-01-21 18:12:00,
2013-01-21 12:22:00,12.0,-22.0,30.35,WSW,238,7.0,13.0,19,0.00,,,0.00,,2013-01-21 18:22:00,
2013-01-21 12:33:00,15.0,-20.0,30.35,West,270,6.0,13.0,19,0.00,,,0.00,,2013-01-21 18:33:00,
2013-01-21 12:42:00,15.0,-20.0,30.35,West,270,6.0,13.0,19,0.00,,,0.00,,2013-01-21 18:42:00,
2013-01-21 12:53:00,14.0,-21.0,30.33,West,262,10.0,14.0,19,0.00,,,0.00,,2013-01-21 18:53:00,
2013-01-21 13:03:00,14.0,-21.0,30.34,SSW,202,7.0,10.0,19,0.00,,,0.00,,2013-01-21 19:03:00,
2013-01-21 13:12:00,16.0,-19.0,30.34,SW,236,5.0,14.0,19,0.00,,,0.00,,2013-01-21 19:12:00,
2013-01-21 13:22:00,16.0,-19.0,30.34,SW,236,5.0,14.0,19,0.00,,,0.00,,2013-01-21 19:22:00,
2013-01-21 13:33:00,15.0,-20.0,30.34,WSW,248,13.0,24.0,19,0.00,,,0.00,,2013-01-21 19:33:00,
2013-01-21 13:42:00,15.0,-20.0,30.34,WSW,248,13.0,24.0,19,0.00,,,0.00,,2013-01-21 19:42:00,
2013-01-21 13:53:00,16.0,-19.0,30.34,WSW,248,12.0,16.0,19,0.00,,,0.00,,2013-01-21 19:53:00,
2013-01-21 14:03:00,15.0,-20.0,30.34,West,270,13.0,17.0,19,0.00,,,0.00,,2013-01-21 20:03:00,
2013-01-21 14:12:00,15.0,-20.0,30.34,West,270,13.0,17.0,19,0.00,,,0.00,,2013-01-21 20:12:00,
2013-01-21 14:23:00,15.0,-20.0,30.35,WNW,288,7.0,17.0,19,0.00,,,0.00,,2013-01-21 20:23:00,
2013-01-21 14:33:00,15.0,-20.0,30.35,WSW,248,14.0,15.0,19,0.00,,,0.00,,2013-01-21 20:33:00,
2013-01-21 14:43:00,15.0,-20.0,30.35,WSW,248,14.0,15.0,19,0.00,,,0.00,,2013-01-21 20:43:00,
2013-01-21 14:53:00,15.0,-20.0,30.36,WNW,284,5.0,9.0,19,0.00,,,0.00,,2013-01-21 20:53:00,
2013-01-21 15:03:00,14.0,-21.0,30.35,WSW,248,7.0,8.0,19,0.00,,,0.00,,2013-01-21 21:03:00,
2013-01-21 15:12:00,14.0,-21.0,30.35,WSW,248,7.0,8.0,19,0.00,,,0.00,,2013-01-21 21:12:00,
2013-01-21 15:22:00,11.0,-23.0,30.35,WNW,285,2.0,14.0,19,0.00,,,0.00,,2013-01-21 21:22:00,
2013-01-21 15:33:00,12.0,-22.0,30.36,NW,314,8.0,10.0,19,0.00,,,0.00,,2013-01-21 21:33:00,
2013-01-21 15:43:00,12.0,-22.0,30.36,NW,314,8.0,10.0,19,0.00,,,0.00,,2013-01-21 21:43:00,
2013-01-21 15:53:00,14.0,-21.0,30.36,WSW,248,6.0,10.0,19,0.00,,,0.00,,2013-01-21 21:53:00,
2013-01-21 16:03:00,13.0,-21.0,30.36,WSW,248,3.0,10.0,19,0.00,,,0.00,,2013-01-21 22:03:00,
2013-01-21 16:12:00,13.0,-21.0,30.36,WSW,248,3.0,10.0,19,0.00,,,0.00,,2013-01-21 22:12:00,
2013-01-21 16:23:00,13.0,-21.0,30.36,WNW,295,9.0,10.0,19,0.00,,,0.00,,2013-01-21 22:23:00,
2013-01-21 16:33:00,13.0,-21.0,30.36,WNW,292,1.0,7.0,19,0.00,,,0.00,,2013-01-21 22:33:00,
2013-01-21 16:42:00,13.0,-21.0,30.36,WNW,292,1.0,7.0,19,0.00,,,0.00,,2013-01-21 22:42:00,
2013-01-21 16:53:00,10.0,-24.0,30.37,WSW,248,4.0,10.0,19,0.00,,,0.00,,2013-01-21 22:53:00,
2013-01-21 17:03:00,7.0,-26.0,30.37,West,270,2.0,7.0,19,0.00,,,0.00,,2013-01-21 23:03:00,
2013-01-21 17:12:00,7.0,-26.0,30.37,West,270,2.0,7.0,19,0.00,,,0.00,,2013-01-21 23:12:00,
2013-01-21 17:22:00,5.0,-28.0,30.37,West,261,2.0,6.0,19,0.00,,,0.00,,2013-01-21 23:22:00,
2013-01-21 17:33:00,4.0,-29.0,30.37,SW,225,1.0,8.0,19,0.00,,,0.00,,2013-01-21 23:33:00,
2013-01-21 17:42:00,4.0,-29.0,30.37,SW,225,1.0,8.0,19,0.00,,,0.00,,2013-01-21 23:42:00,
2013-01-21 17:53:00,4.0,-29.0,30.37,WSW,248,7.0,9.0,19,0.00,,,0.00,,2013-01-21 23:53:00,
2013-01-21 18:02:00,4.0,-29.0,30.37,West,270,0.0,5.0,19,0.00,,,0.00,,2013-01-22 00:02:00,
2013-01-21 18:12:00,4.0,-29.0,30.37,West,270,0.0,5.0,19,0.00,,,0.00,,2013-01-22 00:12:00,
2013-01-21 18:22:00,4.0,-29.0,30.38,SW,225,5.0,8.0,19,0.00,,,0.00,,2013-01-22 00:22:00,
2013-01-21 18:32:00,4.0,-29.0,30.38,WSW,251,0.0,8.0,19,0.00,,,0.00,,2013-01-22 00:32:00,
2013-01-21 18:42:00,4.0,-29.0,30.38,WSW,251,0.0,8.0,19,0.00,,,0.00,,2013-01-22 00:42:00,
2013-01-21 18:53:00,3.0,-30.0,30.38,SW,225,2.0,8.0,19,0.00,,,0.00,,2013-01-22 00:53:00,
2013-01-21 19:02:00,3.0,-30.0,30.39,WSW,248,4.0,12.0,19,0.00,,,0.00,,2013-01-22 01:02:00,
2013-01-21 19:12:00,3.0,-30.0,30.39,WSW,248,4.0,12.0,19,0.00,,,0.00,,2013-01-22 01:12:00,
2013-01-21 19:23:00,3.0,-30.0,30.39,WSW,248,3.0,8.0,19,0.00,,,0.00,,2013-01-22 01:23:00,
2013-01-21 19:32:00,3.0,-30.0,30.40,SW,225,7.0,8.0,19,0.00,,,0.00,,2013-01-22 01:32:00,
2013-01-21 19:42:00,3.0,-30.0,30.40,SW,225,7.0,8.0,19,0.00,,,0.00,,2013-01-22 01:42:00,
2013-01-21 19:52:00,3.0,-30.0,30.40,SW,225,2.0,3.0,19,0.00,,,0.00,,2013-01-22 01:52:00,
2013-01-21 20:02:00,3.0,-30.0,30.40,SW,225,2.0,3.0,19,0.00,,,0.00,,2013-01-22 02:02:00,
2013-01-21 20:12:00,3.0,-30.0,30.40,SW,225,2.0,3.0,19,0.00,,,0.00,,2013-01-22 02:12:00,
2013-01-21 20:22:00,2.0,-31.0,30.40,WSW,248,7.0,10.0,19,0.00,,,0.00,,2013-01-22 02:22:00,
2013-01-21 20:32:00,2.0,-31.0,30.40,WSW,243,0.0,7.0,19,0.00,,,0.00,,2013-01-22 02:32:00,
2013-01-21 20:43:00,2.0,-31.0,30.40,WSW,243,0.0,7.0,19,0.00,,,0.00,,2013-01-22 02:43:00,
2013-01-21 20:53:00,2.0,-31.0,30.42,West,270,6.0,8.0,19,0.00,,,0.00,,2013-01-22 02:53:00,
2013-01-21 21:02:00,2.0,-31.0,30.42,West,270,2.0,5.0,19,0.00,,,0.00,,2013-01-22 03:02:00,
2013-01-21 21:12:00,2.0,-31.0,30.42,West,270,2.0,5.0,19,0.00,,,0.00,,2013-01-22 03:12:00,
2013-01-21 21:22:00,2.0,-31.0,30.43,West,261,3.0,7.0,19,0.00,,,0.00,,2013-01-22 03:22:00,
2013-01-21 21:32:00,1.0,-31.0,30.43,SW,225,0.0,6.0,19,0.00,,,0.00,,2013-01-22 03:32:00,
2013-01-21 21:42:00,1.0,-31.0,30.43,SW,225,0.0,6.0,19,0.00,,,0.00,,2013-01-22 03:42:00,
2013-01-21 21:53:00,1.0,-30.0,30.42,West,270,0.0,3.0,21,0.00,,,0.00,,2013-01-22 03:53:00,
2013-01-21 22:02:00,1.0,-28.0,30.42,SW,225,3.0,7.0,23,0.00,,,0.00,,2013-01-22 04:02:00,
2013-01-21 22:12:00,1.0,-28.0,30.42,SW,225,3.0,7.0,23,0.00,,,0.00,,2013-01-22 04:12:00,
2013-01-21 22:22:00,0.0,-26.0,30.43,WSW,248,1.0,7.0,27,0.00,,,0.00,,2013-01-22 04:22:00,
2013-01-21 22:32:00,1.0,-23.0,30.43,West,270,0.0,5.0,30,0.00,,,0.00,,2013-01-22 04:32:00,
2013-01-21 22:42:00,1.0,-23.0,30.43,West,270,0.0,5.0,30,0.00,,,0.00,,2013-01-22 04:42:00,
2013-01-21 22:52:00,0.0,-23.0,30.43,WSW,240,1.0,5.0,31,0.00,,,0.00,,2013-01-22 04:52:00,
2013-01-21 23:03:00,0.0,-23.0,30.43,West,270,3.0,6.0,32,0.00,,,0.00,,2013-01-22 05:03:00,
2013-01-21 23:12:00,0.0,-23.0,30.43,West,270,3.0,6.0,32,0.00,,,0.00,,2013-01-22 05:12:00,
2013-01-21 23:22:00,0.0,-23.0,30.43,NW,315,0.0,0.0,32,0.00,,,0.00,,2013-01-22 05:22:00,
2013-01-21 23:32:00,0.0,-22.0,30.43,WSW,248,3.0,8.0,33,0.00,,,0.00,,2013-01-22 05:32:00,
2013-01-21 23:42:00,0.0,-22.0,30.43,WSW,248,3.0,8.0,33,0.00,,,0.00,,2013-01-22 05:42:00,
2013-01-21 23:52:00,0.0,-22.0,30.43,SW,232,6.0,9.0,33,0.00,,,0.00,,2013-01-22 05:52:00,